owner,sensor,date,latitude,longitude,sea_surface_height_above_sea_level,qcFlag 
WAVCIS,ioos:station:WAVCIS:CSI09:1,2008-09-01T00:00:00Z,29.1015,-89.9782,0.576622675,1111122 
WAVCIS,ioos:station:WAVCIS:CSI09:1,2008-09-01T00:00:00Z,29.1015,-89.9782,0.576622675,11111222 
WAVCIS,ioos:station:WAVCIS:CSI09:1,2008-09-01T01:00:00Z,29.1015,-89.9782,0.614622675,1111122 
WAVCIS,ioos:station:WAVCIS:CSI09:1,2008-09-01T01:00:00Z,29.1015,-89.9782,0.614622675,11111222 
WAVCIS,ioos:station:WAVCIS:CSI09:1,2008-09-01T02:00:00Z,29.1015,-89.9782,0.676622675,1111122 
WAVCIS,ioos:station:WAVCIS:CSI09:1,2008-09-01T02:00:00Z,29.1015,-89.9782,0.676622675,11111222 
WAVCIS,ioos:station:WAVCIS:CSI09:1,2008-09-01T03:00:00Z,29.1015,-89.9782,0.593622675,1111122 
WAVCIS,ioos:station:WAVCIS:CSI09:1,2008-09-01T03:00:00Z,29.1015,-89.9782,0.593622675,11111222 
WAVCIS,ioos:station:WAVCIS:CSI09:1,2008-09-01T04:00:00Z,29.1015,-89.9782,0.558622675,1111122 
WAVCIS,ioos:station:WAVCIS:CSI09:1,2008-09-01T04:00:00Z,29.1015,-89.9782,0.558622675,11111222 
WAVCIS,ioos:station:WAVCIS:CSI09:1,2008-09-01T05:00:00Z,29.1015,-89.9782,0.642622675,1111122 
WAVCIS,ioos:station:WAVCIS:CSI09:1,2008-09-01T05:00:00Z,29.1015,-89.9782,0.642622675,11111222 
WAVCIS,ioos:station:WAVCIS:CSI09:1,2008-09-01T06:00:00Z,29.1015,-89.9782,0.792622675,1111122 
WAVCIS,ioos:station:WAVCIS:CSI09:1,2008-09-01T06:00:00Z,29.1015,-89.9782,0.792622675,11111222 
WAVCIS,ioos:station:WAVCIS:CSI09:1,2008-09-01T07:00:00Z,29.1015,-89.9782,0.877622675,1111122 
WAVCIS,ioos:station:WAVCIS:CSI09:1,2008-09-01T07:00:00Z,29.1015,-89.9782,0.877622675,11111222 
WAVCIS,ioos:station:WAVCIS:CSI09:1,2008-09-01T08:00:00Z,29.1015,-89.9782,0.880622675,1111122 
WAVCIS,ioos:station:WAVCIS:CSI09:1,2008-09-01T08:00:00Z,29.1015,-89.9782,0.880622675,11111222 
WAVCIS,ioos:station:WAVCIS:CSI09:1,2008-09-01T09:00:00Z,29.1015,-89.9782,0.872622675,1111122 
WAVCIS,ioos:station:WAVCIS:CSI09:1,2008-09-01T09:00:00Z,29.1015,-89.9782,0.872622675,11111222 
WAVCIS,ioos:station:WAVCIS:CSI09:1,2008-09-01T10:00:00Z,29.1015,-89.9782,1.188622675,1111122 
WAVCIS,ioos:station:WAVCIS:CSI09:1,2008-09-01T10:00:00Z,29.1015,-89.9782,1.188622675,11111222 
WAVCIS,ioos:station:WAVCIS:CSI09:1,2008-09-01T11:00:00Z,29.1015,-89.9782,-9999.0,1111122 
WAVCIS,ioos:station:WAVCIS:CSI09:1,2008-09-01T12:00:00Z,29.1015,-89.9782,-9999.0,1111122 
WAVCIS,ioos:station:WAVCIS:CSI09:1,2008-09-01T13:00:00Z,29.1015,-89.9782,-9999.0,1111122 
WAVCIS,ioos:station:WAVCIS:CSI09:1,2008-09-01T14:00:00Z,29.1015,-89.9782,-9999.0,1111122 
WAVCIS,ioos:station:WAVCIS:CSI09:1,2008-09-01T15:00:00Z,29.1015,-89.9782,-9999.0,1111122 
WAVCIS,ioos:station:WAVCIS:CSI09:1,2008-09-01T16:00:00Z,29.1015,-89.9782,-9999.0,1111122 
WAVCIS,ioos:station:WAVCIS:CSI09:1,2008-09-01T17:00:00Z,29.1015,-89.9782,-9999.0,1111122 
WAVCIS,ioos:station:WAVCIS:CSI09:1,2008-09-01T18:00:00Z,29.1015,-89.9782,-9999.0,1111122 
WAVCIS,ioos:station:WAVCIS:CSI09:1,2008-09-01T19:00:00Z,29.1015,-89.9782,-9999.0,1111122 
WAVCIS,ioos:station:WAVCIS:CSI09:1,2008-09-01T20:00:00Z,29.1015,-89.9782,-9999.0,1111122 
WAVCIS,ioos:station:WAVCIS:CSI09:1,2008-09-01T21:00:00Z,29.1015,-89.9782,-9999.0,1111122 
WAVCIS,ioos:station:WAVCIS:CSI09:1,2008-09-01T22:00:00Z,29.1015,-89.9782,-9999.0,1111122 
WAVCIS,ioos:station:WAVCIS:CSI09:1,2008-09-01T23:00:00Z,29.1015,-89.9782,-9999.0,1111122 
WAVCIS,ioos:station:WAVCIS:CSI09:1,2008-09-02T00:00:00Z,29.1015,-89.9782,-9999.0,1111122 
WAVCIS,ioos:station:WAVCIS:CSI09:1,2008-09-02T01:00:00Z,29.1015,-89.9782,-9999.0,1111122 
WAVCIS,ioos:station:WAVCIS:CSI09:1,2008-09-02T02:00:00Z,29.1015,-89.9782,-9999.0,1111122 
WAVCIS,ioos:station:WAVCIS:CSI09:1,2008-09-02T03:00:00Z,29.1015,-89.9782,-9999.0,1111122 
WAVCIS,ioos:station:WAVCIS:CSI09:1,2008-09-02T04:00:00Z,29.1015,-89.9782,-9999.0,1111122 
WAVCIS,ioos:station:WAVCIS:CSI09:1,2008-09-02T05:00:00Z,29.1015,-89.9782,-9999.0,1111122 
WAVCIS,ioos:station:WAVCIS:CSI09:1,2008-09-02T06:00:00Z,29.1015,-89.9782,-9999.0,1111122 
WAVCIS,ioos:station:WAVCIS:CSI09:1,2008-09-02T07:00:00Z,29.1015,-89.9782,-9999.0,1111122 
WAVCIS,ioos:station:WAVCIS:CSI09:1,2008-09-02T08:00:00Z,29.1015,-89.9782,-9999.0,1111122 
WAVCIS,ioos:station:WAVCIS:CSI09:1,2008-09-02T09:00:00Z,29.1015,-89.9782,-9999.0,1111122 
WAVCIS,ioos:station:WAVCIS:CSI09:1,2008-09-02T10:00:00Z,29.1015,-89.9782,-9999.0,1111122 
WAVCIS,ioos:station:WAVCIS:CSI09:1,2008-09-02T11:00:00Z,29.1015,-89.9782,-9999.0,1111122 
WAVCIS,ioos:station:WAVCIS:CSI09:1,2008-09-02T12:00:00Z,29.1015,-89.9782,-9999.0,1111122 
WAVCIS,ioos:station:WAVCIS:CSI09:1,2008-09-02T13:00:00Z,29.1015,-89.9782,-9999.0,1111122 
WAVCIS,ioos:station:WAVCIS:CSI09:1,2008-09-02T15:00:00Z,29.1015,-89.9782,-9999.0,1111122 
WAVCIS,ioos:station:WAVCIS:CSI09:1,2008-09-02T16:00:00Z,29.1015,-89.9782,-9999.0,1111122 
WAVCIS,ioos:station:WAVCIS:CSI09:1,2008-09-02T17:00:00Z,29.1015,-89.9782,-9999.0,1111122 
WAVCIS,ioos:station:WAVCIS:CSI09:1,2008-09-02T18:00:00Z,29.1015,-89.9782,-9999.0,1111122 
WAVCIS,ioos:station:WAVCIS:CSI09:1,2008-09-02T19:00:00Z,29.1015,-89.9782,-9999.0,1111122 
WAVCIS,ioos:station:WAVCIS:CSI09:1,2008-09-02T20:00:00Z,29.1015,-89.9782,-9999.0,1111122 
WAVCIS,ioos:station:WAVCIS:CSI09:1,2008-09-02T21:00:00Z,29.1015,-89.9782,-9999.0,1111122 
WAVCIS,ioos:station:WAVCIS:CSI09:1,2008-09-02T22:00:00Z,29.1015,-89.9782,-9999.0,1111122 
WAVCIS,ioos:station:WAVCIS:CSI09:1,2008-09-02T23:00:00Z,29.1015,-89.9782,-9999.0,1111122 
WAVCIS,ioos:station:WAVCIS:CSI09:1,2008-09-03T00:00:00Z,29.1015,-89.9782,-9999.0,1111122 
WAVCIS,ioos:station:WAVCIS:CSI09:1,2008-09-03T01:00:00Z,29.1015,-89.9782,-9999.0,1111122 
WAVCIS,ioos:station:WAVCIS:CSI09:1,2008-09-03T02:00:00Z,29.1015,-89.9782,-9999.0,1111122 
WAVCIS,ioos:station:WAVCIS:CSI09:1,2008-09-03T03:00:00Z,29.1015,-89.9782,-9999.0,1111122 
WAVCIS,ioos:station:WAVCIS:CSI09:1,2008-09-03T04:00:00Z,29.1015,-89.9782,-9999.0,1111122 
WAVCIS,ioos:station:WAVCIS:CSI09:1,2008-09-03T05:00:00Z,29.1015,-89.9782,-9999.0,1111122 
WAVCIS,ioos:station:WAVCIS:CSI09:1,2008-09-03T06:00:00Z,29.1015,-89.9782,-9999.0,1111122 
WAVCIS,ioos:station:WAVCIS:CSI09:1,2008-09-03T07:00:00Z,29.1015,-89.9782,-9999.0,1111122 
WAVCIS,ioos:station:WAVCIS:CSI09:1,2008-09-03T08:00:00Z,29.1015,-89.9782,-9999.0,1111122 
WAVCIS,ioos:station:WAVCIS:CSI09:1,2008-09-03T09:00:00Z,29.1015,-89.9782,-9999.0,1111122 
WAVCIS,ioos:station:WAVCIS:CSI09:1,2008-09-03T10:00:00Z,29.1015,-89.9782,-9999.0,1111122 
WAVCIS,ioos:station:WAVCIS:CSI09:1,2008-09-03T11:00:00Z,29.1015,-89.9782,-9999.0,1111122 
WAVCIS,ioos:station:WAVCIS:CSI09:1,2008-09-03T12:00:00Z,29.1015,-89.9782,-9999.0,1111122 
WAVCIS,ioos:station:WAVCIS:CSI09:1,2008-09-03T13:00:00Z,29.1015,-89.9782,-9999.0,1111122 
WAVCIS,ioos:station:WAVCIS:CSI09:1,2008-09-03T14:00:00Z,29.1015,-89.9782,-9999.0,1111122 
WAVCIS,ioos:station:WAVCIS:CSI09:1,2008-09-03T15:00:00Z,29.1015,-89.9782,-9999.0,1111122 
WAVCIS,ioos:station:WAVCIS:CSI09:1,2008-09-03T16:00:00Z,29.1015,-89.9782,-9999.0,1111122 
WAVCIS,ioos:station:WAVCIS:CSI09:1,2008-09-03T17:00:00Z,29.1015,-89.9782,-9999.0,1111122 
WAVCIS,ioos:station:WAVCIS:CSI09:1,2008-09-03T18:00:00Z,29.1015,-89.9782,-9999.0,1111122 
WAVCIS,ioos:station:WAVCIS:CSI09:1,2008-09-03T19:00:00Z,29.1015,-89.9782,-9999.0,1111122 
WAVCIS,ioos:station:WAVCIS:CSI09:1,2008-09-03T20:00:00Z,29.1015,-89.9782,-9999.0,1111122 
WAVCIS,ioos:station:WAVCIS:CSI09:1,2008-09-03T21:00:00Z,29.1015,-89.9782,-9999.0,1111122 
WAVCIS,ioos:station:WAVCIS:CSI09:1,2008-09-03T22:00:00Z,29.1015,-89.9782,-9999.0,1111122 
WAVCIS,ioos:station:WAVCIS:CSI09:1,2008-09-03T23:00:00Z,29.1015,-89.9782,-9999.0,1111122 
WAVCIS,ioos:station:WAVCIS:CSI09:1,2008-09-04T00:00:00Z,29.1015,-89.9782,-9999.0,1111122 
WAVCIS,ioos:station:WAVCIS:CSI09:1,2008-09-04T01:00:00Z,29.1015,-89.9782,-9999.0,1111122 
WAVCIS,ioos:station:WAVCIS:CSI09:1,2008-09-04T02:00:00Z,29.1015,-89.9782,-9999.0,1111122 
WAVCIS,ioos:station:WAVCIS:CSI09:1,2008-09-04T03:00:00Z,29.1015,-89.9782,-9999.0,1111122 
WAVCIS,ioos:station:WAVCIS:CSI09:1,2008-09-04T04:00:00Z,29.1015,-89.9782,-9999.0,1111122 
WAVCIS,ioos:station:WAVCIS:CSI09:1,2008-09-04T05:00:00Z,29.1015,-89.9782,-9999.0,1111122 
WAVCIS,ioos:station:WAVCIS:CSI09:1,2008-09-04T06:00:00Z,29.1015,-89.9782,-9999.0,1111122 
WAVCIS,ioos:station:WAVCIS:CSI09:1,2008-09-04T07:00:00Z,29.1015,-89.9782,-9999.0,1111122 
WAVCIS,ioos:station:WAVCIS:CSI09:1,2008-09-04T08:00:00Z,29.1015,-89.9782,-9999.0,1111122 
WAVCIS,ioos:station:WAVCIS:CSI09:1,2008-09-04T09:00:00Z,29.1015,-89.9782,-9999.0,1111122 
WAVCIS,ioos:station:WAVCIS:CSI09:1,2008-09-04T10:00:00Z,29.1015,-89.9782,-9999.0,1111122 
WAVCIS,ioos:station:WAVCIS:CSI09:1,2008-09-04T11:00:00Z,29.1015,-89.9782,-9999.0,1111122 
WAVCIS,ioos:station:WAVCIS:CSI09:1,2008-09-04T12:00:00Z,29.1015,-89.9782,-9999.0,1111122 
WAVCIS,ioos:station:WAVCIS:CSI09:1,2008-09-04T13:00:00Z,29.1015,-89.9782,-9999.0,1111122 
WAVCIS,ioos:station:WAVCIS:CSI09:1,2008-09-04T14:00:00Z,29.1015,-89.9782,-9999.0,1111122 
WAVCIS,ioos:station:WAVCIS:CSI09:1,2008-09-04T15:00:00Z,29.1015,-89.9782,-9999.0,1111122 
WAVCIS,ioos:station:WAVCIS:CSI09:1,2008-09-04T16:00:00Z,29.1015,-89.9782,-9999.0,1111122 
WAVCIS,ioos:station:WAVCIS:CSI09:1,2008-09-04T17:00:00Z,29.1015,-89.9782,-9999.0,1111122 
WAVCIS,ioos:station:WAVCIS:CSI09:1,2008-09-04T18:00:00Z,29.1015,-89.9782,-9999.0,1111122 
WAVCIS,ioos:station:WAVCIS:CSI09:1,2008-09-04T19:00:00Z,29.1015,-89.9782,-9999.0,1111122 
WAVCIS,ioos:station:WAVCIS:CSI09:1,2008-09-04T20:00:00Z,29.1015,-89.9782,-9999.0,1111122 
WAVCIS,ioos:station:WAVCIS:CSI09:1,2008-09-04T21:00:00Z,29.1015,-89.9782,-9999.0,1111122 
WAVCIS,ioos:station:WAVCIS:CSI09:1,2008-09-04T22:00:00Z,29.1015,-89.9782,-9999.0,1111122 
WAVCIS,ioos:station:WAVCIS:CSI09:1,2008-09-04T23:00:00Z,29.1015,-89.9782,-9999.0,1111122 
WAVCIS,ioos:station:WAVCIS:CSI09:1,2008-09-05T00:00:00Z,29.1015,-89.9782,-9999.0,1111122 
WAVCIS,ioos:station:WAVCIS:CSI09:1,2008-09-05T01:00:00Z,29.1015,-89.9782,-9999.0,1111122 
WAVCIS,ioos:station:WAVCIS:CSI09:1,2008-09-05T02:00:00Z,29.1015,-89.9782,-9999.0,1111122 
WAVCIS,ioos:station:WAVCIS:CSI09:1,2008-09-05T03:00:00Z,29.1015,-89.9782,-9999.0,1111122 
WAVCIS,ioos:station:WAVCIS:CSI09:1,2008-09-05T04:00:00Z,29.1015,-89.9782,-9999.0,1111122 
WAVCIS,ioos:station:WAVCIS:CSI09:1,2008-09-05T05:00:00Z,29.1015,-89.9782,-9999.0,1111122 
WAVCIS,ioos:station:WAVCIS:CSI09:1,2008-09-05T06:00:00Z,29.1015,-89.9782,-9999.0,1111122 
WAVCIS,ioos:station:WAVCIS:CSI09:1,2008-09-05T07:00:00Z,29.1015,-89.9782,-9999.0,1111122 
WAVCIS,ioos:station:WAVCIS:CSI09:1,2008-09-05T08:00:00Z,29.1015,-89.9782,-9999.0,1111122 
WAVCIS,ioos:station:WAVCIS:CSI09:1,2008-09-05T09:00:00Z,29.1015,-89.9782,-9999.0,1111122 
WAVCIS,ioos:station:WAVCIS:CSI09:1,2008-09-05T10:00:00Z,29.1015,-89.9782,-9999.0,1111122 
WAVCIS,ioos:station:WAVCIS:CSI09:1,2008-09-05T11:00:00Z,29.1015,-89.9782,-9999.0,1111122 
WAVCIS,ioos:station:WAVCIS:CSI09:1,2008-09-05T12:00:00Z,29.1015,-89.9782,-9999.0,1111122 
WAVCIS,ioos:station:WAVCIS:CSI09:1,2008-09-05T13:00:00Z,29.1015,-89.9782,-9999.0,1111122 
WAVCIS,ioos:station:WAVCIS:CSI09:1,2008-09-05T14:00:00Z,29.1015,-89.9782,-9999.0,1111122 
WAVCIS,ioos:station:WAVCIS:CSI09:1,2008-09-05T15:00:00Z,29.1015,-89.9782,-9999.0,1111122 
WAVCIS,ioos:station:WAVCIS:CSI09:1,2008-09-05T16:00:00Z,29.1015,-89.9782,-9999.0,1111122 
WAVCIS,ioos:station:WAVCIS:CSI09:1,2008-09-05T17:00:00Z,29.1015,-89.9782,-9999.0,1111122 
WAVCIS,ioos:station:WAVCIS:CSI09:1,2008-09-05T18:00:00Z,29.1015,-89.9782,-9999.0,1111122 
WAVCIS,ioos:station:WAVCIS:CSI09:1,2008-09-05T19:00:00Z,29.1015,-89.9782,-9999.0,1111122 
WAVCIS,ioos:station:WAVCIS:CSI09:1,2008-09-05T20:00:00Z,29.1015,-89.9782,-9999.0,1111122 
WAVCIS,ioos:station:WAVCIS:CSI09:1,2008-09-05T21:00:00Z,29.1015,-89.9782,-9999.0,1111122 
WAVCIS,ioos:station:WAVCIS:CSI09:1,2008-09-05T22:00:00Z,29.1015,-89.9782,-9999.0,1111122 
WAVCIS,ioos:station:WAVCIS:CSI09:1,2008-09-05T23:00:00Z,29.1015,-89.9782,-9999.0,1111122 
WAVCIS,ioos:station:WAVCIS:CSI09:1,2008-09-06T00:00:00Z,29.1015,-89.9782,-9999.0,1111122 
WAVCIS,ioos:station:WAVCIS:CSI09:1,2008-09-06T01:00:00Z,29.1015,-89.9782,-9999.0,1111122 
WAVCIS,ioos:station:WAVCIS:CSI09:1,2008-09-06T02:00:00Z,29.1015,-89.9782,-9999.0,1111122 
WAVCIS,ioos:station:WAVCIS:CSI09:1,2008-09-06T03:00:00Z,29.1015,-89.9782,-9999.0,1111122 
WAVCIS,ioos:station:WAVCIS:CSI09:1,2008-09-06T04:00:00Z,29.1015,-89.9782,-9999.0,1111122 
WAVCIS,ioos:station:WAVCIS:CSI09:1,2008-09-06T05:00:00Z,29.1015,-89.9782,-9999.0,1111122 
WAVCIS,ioos:station:WAVCIS:CSI09:1,2008-09-06T06:00:00Z,29.1015,-89.9782,-9999.0,1111122 
WAVCIS,ioos:station:WAVCIS:CSI09:1,2008-09-06T07:00:00Z,29.1015,-89.9782,-9999.0,1111122 
WAVCIS,ioos:station:WAVCIS:CSI09:1,2008-09-06T08:00:00Z,29.1015,-89.9782,-9999.0,1111122 
WAVCIS,ioos:station:WAVCIS:CSI09:1,2008-09-06T09:00:00Z,29.1015,-89.9782,-9999.0,1111122 
WAVCIS,ioos:station:WAVCIS:CSI09:1,2008-09-06T10:00:00Z,29.1015,-89.9782,-9999.0,1111122 
WAVCIS,ioos:station:WAVCIS:CSI09:1,2008-09-06T11:00:00Z,29.1015,-89.9782,-9999.0,1111122 
WAVCIS,ioos:station:WAVCIS:CSI09:1,2008-09-06T12:00:00Z,29.1015,-89.9782,-9999.0,1111122 
WAVCIS,ioos:station:WAVCIS:CSI09:1,2008-09-06T13:00:00Z,29.1015,-89.9782,-9999.0,1111122 
WAVCIS,ioos:station:WAVCIS:CSI09:1,2008-09-06T14:00:00Z,29.1015,-89.9782,-9999.0,1111122 
WAVCIS,ioos:station:WAVCIS:CSI09:1,2008-09-06T15:00:00Z,29.1015,-89.9782,-9999.0,1111122 
WAVCIS,ioos:station:WAVCIS:CSI09:1,2008-09-06T16:00:00Z,29.1015,-89.9782,-9999.0,1111122 
WAVCIS,ioos:station:WAVCIS:CSI09:1,2008-09-06T17:00:00Z,29.1015,-89.9782,-9999.0,1111122 
WAVCIS,ioos:station:WAVCIS:CSI09:1,2008-09-06T18:00:00Z,29.1015,-89.9782,-9999.0,1111122 
WAVCIS,ioos:station:WAVCIS:CSI09:1,2008-09-06T19:00:00Z,29.1015,-89.9782,-9999.0,1111122 
WAVCIS,ioos:station:WAVCIS:CSI09:1,2008-09-06T20:00:00Z,29.1015,-89.9782,-9999.0,1111122 
WAVCIS,ioos:station:WAVCIS:CSI09:1,2008-09-06T21:00:00Z,29.1015,-89.9782,-9999.0,1111122 
WAVCIS,ioos:station:WAVCIS:CSI09:1,2008-09-06T22:00:00Z,29.1015,-89.9782,-9999.0,1111122 
WAVCIS,ioos:station:WAVCIS:CSI09:1,2008-09-06T23:00:00Z,29.1015,-89.9782,-9999.0,1111122 
WAVCIS,ioos:station:WAVCIS:CSI09:1,2008-09-07T00:00:00Z,29.1015,-89.9782,-9999.0,1111122 
WAVCIS,ioos:station:WAVCIS:CSI09:1,2008-09-07T01:00:00Z,29.1015,-89.9782,-9999.0,1111122 
WAVCIS,ioos:station:WAVCIS:CSI09:1,2008-09-07T02:00:00Z,29.1015,-89.9782,-9999.0,1111122 
WAVCIS,ioos:station:WAVCIS:CSI09:1,2008-09-07T03:00:00Z,29.1015,-89.9782,-9999.0,1111122 
WAVCIS,ioos:station:WAVCIS:CSI09:1,2008-09-07T04:00:00Z,29.1015,-89.9782,-9999.0,1111122 
WAVCIS,ioos:station:WAVCIS:CSI09:1,2008-09-07T05:00:00Z,29.1015,-89.9782,-9999.0,1111122 
WAVCIS,ioos:station:WAVCIS:CSI09:1,2008-09-07T06:00:00Z,29.1015,-89.9782,-9999.0,1111122 
WAVCIS,ioos:station:WAVCIS:CSI09:1,2008-09-07T07:00:00Z,29.1015,-89.9782,-9999.0,1111122 
WAVCIS,ioos:station:WAVCIS:CSI09:1,2008-09-07T08:00:00Z,29.1015,-89.9782,-9999.0,1111122 
WAVCIS,ioos:station:WAVCIS:CSI09:1,2008-09-07T09:00:00Z,29.1015,-89.9782,-9999.0,1111122 
WAVCIS,ioos:station:WAVCIS:CSI09:1,2008-09-07T10:00:00Z,29.1015,-89.9782,-9999.0,1111122 
WAVCIS,ioos:station:WAVCIS:CSI09:1,2008-09-07T11:00:00Z,29.1015,-89.9782,-9999.0,1111122 
WAVCIS,ioos:station:WAVCIS:CSI09:1,2008-09-07T12:00:00Z,29.1015,-89.9782,-9999.0,1111122 
WAVCIS,ioos:station:WAVCIS:CSI09:1,2008-09-07T13:00:00Z,29.1015,-89.9782,-9999.0,1111122 
WAVCIS,ioos:station:WAVCIS:CSI09:1,2008-09-07T14:00:00Z,29.1015,-89.9782,-9999.0,1111122 
WAVCIS,ioos:station:WAVCIS:CSI09:1,2008-09-07T15:00:00Z,29.1015,-89.9782,-9999.0,1111122 
WAVCIS,ioos:station:WAVCIS:CSI09:1,2008-09-07T16:00:00Z,29.1015,-89.9782,-9999.0,1111122 
WAVCIS,ioos:station:WAVCIS:CSI09:1,2008-09-07T17:00:00Z,29.1015,-89.9782,-9999.0,1111122 
WAVCIS,ioos:station:WAVCIS:CSI09:1,2008-09-07T18:00:00Z,29.1015,-89.9782,-9999.0,1111122 
WAVCIS,ioos:station:WAVCIS:CSI09:1,2008-09-07T19:00:00Z,29.1015,-89.9782,-9999.0,1111122 
WAVCIS,ioos:station:WAVCIS:CSI09:1,2008-09-07T20:00:00Z,29.1015,-89.9782,-9999.0,1111122 
WAVCIS,ioos:station:WAVCIS:CSI09:1,2008-09-07T21:00:00Z,29.1015,-89.9782,-9999.0,1111122 
WAVCIS,ioos:station:WAVCIS:CSI09:1,2008-09-07T22:00:00Z,29.1015,-89.9782,-9999.0,1111122 
WAVCIS,ioos:station:WAVCIS:CSI09:1,2008-09-07T23:00:00Z,29.1015,-89.9782,-9999.0,1111122 
WAVCIS,ioos:station:WAVCIS:CSI09:1,2008-09-08T00:00:00Z,29.1015,-89.9782,-9999.0,1111122 
WAVCIS,ioos:station:WAVCIS:CSI09:1,2008-09-08T01:00:00Z,29.1015,-89.9782,-9999.0,1111122 
WAVCIS,ioos:station:WAVCIS:CSI09:1,2008-09-08T02:00:00Z,29.1015,-89.9782,-9999.0,1111122 
WAVCIS,ioos:station:WAVCIS:CSI09:1,2008-09-08T03:00:00Z,29.1015,-89.9782,-9999.0,1111122 
WAVCIS,ioos:station:WAVCIS:CSI09:1,2008-09-08T04:00:00Z,29.1015,-89.9782,-9999.0,1111122 
WAVCIS,ioos:station:WAVCIS:CSI09:1,2008-09-08T05:00:00Z,29.1015,-89.9782,-9999.0,1111122 
WAVCIS,ioos:station:WAVCIS:CSI09:1,2008-09-08T06:00:00Z,29.1015,-89.9782,-9999.0,1111122 
WAVCIS,ioos:station:WAVCIS:CSI09:1,2008-09-08T07:00:00Z,29.1015,-89.9782,-9999.0,1111122 
WAVCIS,ioos:station:WAVCIS:CSI09:1,2008-09-08T08:00:00Z,29.1015,-89.9782,-9999.0,1111122 
WAVCIS,ioos:station:WAVCIS:CSI09:1,2008-09-08T09:00:00Z,29.1015,-89.9782,-9999.0,1111122 
WAVCIS,ioos:station:WAVCIS:CSI09:1,2008-09-08T10:00:00Z,29.1015,-89.9782,-9999.0,1111122 
WAVCIS,ioos:station:WAVCIS:CSI09:1,2008-09-08T11:00:00Z,29.1015,-89.9782,-9999.0,1111122 
WAVCIS,ioos:station:WAVCIS:CSI09:1,2008-09-08T12:00:00Z,29.1015,-89.9782,-9999.0,1111122 
WAVCIS,ioos:station:WAVCIS:CSI09:1,2008-09-08T13:00:00Z,29.1015,-89.9782,-9999.0,1111122 
WAVCIS,ioos:station:WAVCIS:CSI09:1,2008-09-08T14:00:00Z,29.1015,-89.9782,-9999.0,1111122 
WAVCIS,ioos:station:WAVCIS:CSI09:1,2008-09-08T15:00:00Z,29.1015,-89.9782,-9999.0,1111122 
WAVCIS,ioos:station:WAVCIS:CSI09:1,2008-09-08T16:00:00Z,29.1015,-89.9782,-9999.0,1111122 
WAVCIS,ioos:station:WAVCIS:CSI09:1,2008-09-08T17:00:00Z,29.1015,-89.9782,-9999.0,1111122 
WAVCIS,ioos:station:WAVCIS:CSI09:1,2008-09-08T18:00:00Z,29.1015,-89.9782,-9999.0,1111122 
WAVCIS,ioos:station:WAVCIS:CSI09:1,2008-09-08T19:00:00Z,29.1015,-89.9782,-9999.0,1111122 
WAVCIS,ioos:station:WAVCIS:CSI09:1,2008-09-08T20:00:00Z,29.1015,-89.9782,-9999.0,1111122 
WAVCIS,ioos:station:WAVCIS:CSI09:1,2008-09-08T21:00:00Z,29.1015,-89.9782,-9999.0,1111122 
WAVCIS,ioos:station:WAVCIS:CSI09:1,2008-09-08T22:00:00Z,29.1015,-89.9782,0.456622675,1111122 
WAVCIS,ioos:station:WAVCIS:CSI09:1,2008-09-08T22:00:00Z,29.1015,-89.9782,0.456622675,11111222 
WAVCIS,ioos:station:WAVCIS:CSI09:1,2008-09-08T23:00:00Z,29.1015,-89.9782,0.478622675,1111122 
WAVCIS,ioos:station:WAVCIS:CSI09:1,2008-09-08T23:00:00Z,29.1015,-89.9782,0.478622675,11111222 
WAVCIS,ioos:station:WAVCIS:CSI09:1,2008-09-09T00:00:00Z,29.1015,-89.9782,0.525622675,1111122 
WAVCIS,ioos:station:WAVCIS:CSI09:1,2008-09-09T00:00:00Z,29.1015,-89.9782,0.525622675,11111222 
WAVCIS,ioos:station:WAVCIS:CSI09:1,2008-09-09T01:00:00Z,29.1015,-89.9782,0.567622675,1111122 
WAVCIS,ioos:station:WAVCIS:CSI09:1,2008-09-09T01:00:00Z,29.1015,-89.9782,0.567622675,11111222 
WAVCIS,ioos:station:WAVCIS:CSI09:1,2008-09-09T02:00:00Z,29.1015,-89.9782,0.612622675,1111122 
WAVCIS,ioos:station:WAVCIS:CSI09:1,2008-09-09T02:00:00Z,29.1015,-89.9782,0.612622675,11111222 
WAVCIS,ioos:station:WAVCIS:CSI09:1,2008-09-09T03:00:00Z,29.1015,-89.9782,0.663622675,1111122 
WAVCIS,ioos:station:WAVCIS:CSI09:1,2008-09-09T03:00:00Z,29.1015,-89.9782,0.663622675,11111222 
WAVCIS,ioos:station:WAVCIS:CSI09:1,2008-09-09T04:00:00Z,29.1015,-89.9782,0.738622675,1111122 
WAVCIS,ioos:station:WAVCIS:CSI09:1,2008-09-09T04:00:00Z,29.1015,-89.9782,0.738622675,11111222 
WAVCIS,ioos:station:WAVCIS:CSI09:1,2008-09-09T05:00:00Z,29.1015,-89.9782,0.787622675,1111122 
WAVCIS,ioos:station:WAVCIS:CSI09:1,2008-09-09T05:00:00Z,29.1015,-89.9782,0.787622675,11111222 
WAVCIS,ioos:station:WAVCIS:CSI09:1,2008-09-09T06:00:00Z,29.1015,-89.9782,0.825622675,1111122 
WAVCIS,ioos:station:WAVCIS:CSI09:1,2008-09-09T06:00:00Z,29.1015,-89.9782,0.825622675,11111222 
WAVCIS,ioos:station:WAVCIS:CSI09:1,2008-09-09T07:00:00Z,29.1015,-89.9782,0.853622675,1111122 
WAVCIS,ioos:station:WAVCIS:CSI09:1,2008-09-09T07:00:00Z,29.1015,-89.9782,0.853622675,11111222 
WAVCIS,ioos:station:WAVCIS:CSI09:1,2008-09-09T08:00:00Z,29.1015,-89.9782,0.899622675,1111122 
WAVCIS,ioos:station:WAVCIS:CSI09:1,2008-09-09T08:00:00Z,29.1015,-89.9782,0.899622675,11111222 
WAVCIS,ioos:station:WAVCIS:CSI09:1,2008-09-09T09:00:00Z,29.1015,-89.9782,0.895622675,1111122 
WAVCIS,ioos:station:WAVCIS:CSI09:1,2008-09-09T09:00:00Z,29.1015,-89.9782,0.895622675,11111222 
WAVCIS,ioos:station:WAVCIS:CSI09:1,2008-09-09T10:00:00Z,29.1015,-89.9782,0.896622675,1111122 
WAVCIS,ioos:station:WAVCIS:CSI09:1,2008-09-09T10:00:00Z,29.1015,-89.9782,0.896622675,11111222 
WAVCIS,ioos:station:WAVCIS:CSI09:1,2008-09-09T11:00:00Z,29.1015,-89.9782,0.888622675,1111122 
WAVCIS,ioos:station:WAVCIS:CSI09:1,2008-09-09T11:00:00Z,29.1015,-89.9782,0.888622675,11111222 
WAVCIS,ioos:station:WAVCIS:CSI09:1,2008-09-09T12:00:00Z,29.1015,-89.9782,0.875622675,1111122 
WAVCIS,ioos:station:WAVCIS:CSI09:1,2008-09-09T12:00:00Z,29.1015,-89.9782,0.875622675,11111222 
WAVCIS,ioos:station:WAVCIS:CSI09:1,2008-09-09T13:00:00Z,29.1015,-89.9782,0.834622675,1111122 
WAVCIS,ioos:station:WAVCIS:CSI09:1,2008-09-09T13:00:00Z,29.1015,-89.9782,0.834622675,11111222 
WAVCIS,ioos:station:WAVCIS:CSI09:1,2008-09-09T14:00:00Z,29.1015,-89.9782,0.774622675,1111122 
WAVCIS,ioos:station:WAVCIS:CSI09:1,2008-09-09T14:00:00Z,29.1015,-89.9782,0.774622675,11111222 
WAVCIS,ioos:station:WAVCIS:CSI09:1,2008-09-09T15:00:00Z,29.1015,-89.9782,0.704622675,1111122 
WAVCIS,ioos:station:WAVCIS:CSI09:1,2008-09-09T15:00:00Z,29.1015,-89.9782,0.704622675,11111222 
WAVCIS,ioos:station:WAVCIS:CSI09:1,2008-09-09T16:00:00Z,29.1015,-89.9782,0.658622675,1111122 
WAVCIS,ioos:station:WAVCIS:CSI09:1,2008-09-09T16:00:00Z,29.1015,-89.9782,0.658622675,11111222 
WAVCIS,ioos:station:WAVCIS:CSI09:1,2008-09-09T17:00:00Z,29.1015,-89.9782,0.570622675,1111122 
WAVCIS,ioos:station:WAVCIS:CSI09:1,2008-09-09T17:00:00Z,29.1015,-89.9782,0.570622675,11111222 
WAVCIS,ioos:station:WAVCIS:CSI09:1,2008-09-09T18:00:00Z,29.1015,-89.9782,0.525622675,1111122 
WAVCIS,ioos:station:WAVCIS:CSI09:1,2008-09-09T18:00:00Z,29.1015,-89.9782,0.525622675,11111222 
WAVCIS,ioos:station:WAVCIS:CSI09:1,2008-09-09T19:00:00Z,29.1015,-89.9782,0.501622675,1111122 
WAVCIS,ioos:station:WAVCIS:CSI09:1,2008-09-09T19:00:00Z,29.1015,-89.9782,0.501622675,11111222 
WAVCIS,ioos:station:WAVCIS:CSI09:1,2008-09-09T20:00:00Z,29.1015,-89.9782,0.469622675,1111122 
WAVCIS,ioos:station:WAVCIS:CSI09:1,2008-09-09T20:00:00Z,29.1015,-89.9782,0.469622675,11111222 
WAVCIS,ioos:station:WAVCIS:CSI09:1,2008-09-09T21:00:00Z,29.1015,-89.9782,0.454622675,1111122 
WAVCIS,ioos:station:WAVCIS:CSI09:1,2008-09-09T21:00:00Z,29.1015,-89.9782,0.454622675,11111222 
WAVCIS,ioos:station:WAVCIS:CSI09:1,2008-09-09T22:00:00Z,29.1015,-89.9782,0.475622675,1111122 
WAVCIS,ioos:station:WAVCIS:CSI09:1,2008-09-09T22:00:00Z,29.1015,-89.9782,0.475622675,11111222 
WAVCIS,ioos:station:WAVCIS:CSI09:1,2008-09-09T23:00:00Z,29.1015,-89.9782,0.495622675,1111122 
WAVCIS,ioos:station:WAVCIS:CSI09:1,2008-09-09T23:00:00Z,29.1015,-89.9782,0.495622675,11111222 
WAVCIS,ioos:station:WAVCIS:CSI09:1,2008-09-10T00:00:00Z,29.1015,-89.9782,0.512622675,1111122 
WAVCIS,ioos:station:WAVCIS:CSI09:1,2008-09-10T00:00:00Z,29.1015,-89.9782,0.512622675,11111222 
WAVCIS,ioos:station:WAVCIS:CSI09:1,2008-09-10T01:00:00Z,29.1015,-89.9782,0.582622675,1111122 
WAVCIS,ioos:station:WAVCIS:CSI09:1,2008-09-10T01:00:00Z,29.1015,-89.9782,0.582622675,11111222 
WAVCIS,ioos:station:WAVCIS:CSI09:1,2008-09-10T02:00:00Z,29.1015,-89.9782,0.627622675,1111122 
WAVCIS,ioos:station:WAVCIS:CSI09:1,2008-09-10T02:00:00Z,29.1015,-89.9782,0.627622675,11111222 
WAVCIS,ioos:station:WAVCIS:CSI09:1,2008-09-10T03:00:00Z,29.1015,-89.9782,0.662622675,1111122 
WAVCIS,ioos:station:WAVCIS:CSI09:1,2008-09-10T03:00:00Z,29.1015,-89.9782,0.662622675,11111222 
WAVCIS,ioos:station:WAVCIS:CSI09:1,2008-09-10T04:00:00Z,29.1015,-89.9782,0.739622675,1111122 